www.pogodaiklimat.ru

Погода и климат >> Архив погоды >> Индия >> Aminidivi


ПОГОДА в Aminidivi

  • Прогноз погоды в Aminidivi
  • Монитор погоды в Aminidivi
  • Климат города

АРХИВ ПОГОДЫ в Aminidivi

Время (UTC), дата Ветер
(напр.,м/с)
 
Видим.   Явления Облачность Т
(С)
Тd
(С)
f
(%)
Тe
(С)
Тes
(С)
Комфортность P
(гПа)
Po
(гПа)
Тmin
(С)
Tmax
(С)
R
(мм)
R24
(мм)
S
(см)
09 10.12 СЗ 1 10 км 9/5 600 м
[Sc Ac trans]
+33.0 +25.4 64 +47 +51 опасность
перегрева
1009.9 1010.0
12 10.12 нст 1 10 км 6/5 600 м
[Sc Ac trans]
+30.6 +24.3 69 +43 +43 опасность
перегрева
1008.9 1009.0 +33.8
15 10.12 штиль 0 4000 м 8/5 600 м
[Sc Ac trans]
+28.6 +24.6 79 +41 +41 опасность
перегрева
1011.3 1011.0
18 10.12 штиль 0 4000 м 8/5 600 м
[Sc Ac trans]
+28.0 +23.9 78 +39 +39 очень
душно
1011.3 1011.0
21 10.12 штиль 0 4000 м 8/5 600 м
[Sc Ac trans]
+27.6 +24.1 81 +38 +38 очень
душно
1009.7 1010.0
00 11.12 С 1 4000 м 8/5 600 м
[Sc Ac trans]
+27.2 +23.4 80 +37 +37 очень
душно
1010.2 1010.0
03 11.12 СВ 1 10 км 4/4 600 м
[Sc]
+28.4 +24.1 78 +40 +41 очень
душно
1012.0 1012.0 +25.0 +33.8
06 11.12 нст 1 10 км 8/5 600 м
[Sc Ac trans]
+32.6 +25.3 66 +47 +53 опасность
перегрева
1012.7 1013.0
09 11.12 нст 1 4000 м 6/5 600 м
[Sc Ac trans]
+33.0 +25.1 63 +47 +53 опасность
перегрева
1010.9 1011.0
12 11.12 СВ 1 10 км 8/5 600 м
[Sc Ac trans]
+30.6 +24.3 69 +43 +43 опасность
перегрева
1009.9 1010.0 +33.6
15 11.12 СВ 1 4000 м 9/5 600 м
[Sc Ac trans]
+28.0 +23.0 74 +37 +37 очень
душно
1011.9 1012.0
18 11.12 нст 1 4000 м 8/5 600 м
[Sc Ac trans]
+27.4 +22.4 74 +36 +36 очень
душно
1012.5 1013.0
21 11.12 СВ 1 4000 м 8/5 600 м
[Sc Ac trans]
+27.0 +22.3 75 +35 +35 очень
душно
1011.1 1011.0
00 12.12 СЗ 1 4000 м 6/5 600 м
[Sc Ac trans]
+26.0 +22.4 81 +34 +34 очень
душно
1011.4 1011.0
03 12.12 нст 1 10 км 5/5 600 м
[Sc]
+27.4 +22.1 73 +36 +37 очень
душно
1013.5 1014.0 +24.2 +33.6
06 12.12 СВ 1 10 км 8/5 600 м
[Sc Ac trans]
+32.0 +23.3 60 +43 +48 опасность
перегрева
1013.7 1014.0
09 12.12 нст 1 10 км 5/5 600 м
[Sc]
+32.4 +21.8 54 +41 +48 опасность
перегрева
1011.0 1011.0
12 12.12 нст 1 10 км 8/5 600 м
[Sc Ac trans]
+30.2 +22.6 64 +40 +40 очень
душно
1010.7 1011.0 +33.3
15 12.12 штиль 0 4000 м 8/5 600 м
[Sc Ac trans]
+27.6 +22.6 74 +36 +36 очень
душно
1012.9 1013.0
18 12.12 СЗ 1 4000 м 8/5 600 м
[Sc Ac trans]
+27.2 +22.5 76 +36 +36 очень
душно
1013.1 1013.0
21 12.12 штиль 0 4000 м 6/5 600 м
[Sc Ac trans]
+26.8 +22.4 77 +35 +35 очень
душно
1011.7 1012.0
00 13.12 штиль 0 4000 м 8/5 600 м
[Sc Ac trans]
+27.0 +22.3 75 +35 +35 очень
душно
1012.1 1012.0
03 13.12 СВ 2 10 км 6/3 600 м
[Sc diur, vesp Ac trans]
+27.0 +22.9 78 +36 +37 очень
душно
1013.8 1014.0 +23.8 +33.3
06 13.12 нст 1 10 км 8/5 600 м
[Sc Ac trans]
+31.6 +23.9 64 +43 +48 опасность
перегрева
1014.0 1014.0
09 13.12 нст 1 10 км 8/5 600 м
[Sc Ac trans]
+32.6 +23.1 57 +43 +47 опасность
перегрева
1010.7 1011.0
12 13.12 штиль 0 10 км 8/5 600 м
[Sc Ac trans]
+30.6 +22.7 63 +40 +41 очень
душно
1010.8 1011.0 +33.2
15 13.12 С 2 4000 м 4/4 600 м
[Sc]
+27.6 +22.3 73 +36 +36 очень
душно
1012.7 1013.0
18 13.12 штиль 0 4000 м 8/5 600 м
[Sc Ac trans]
+27.6 +22.6 74 +36 +36 очень
душно
1013.3 1013.0
21 13.12 штиль 0 4000 м 1/1 600 м
[Sc]
+26.6 +22.1 76 +34 +34 очень
душно
1011.5 1012.0
00 14.12 нст 1 4000 м 4/4 600 м
[Sc]
+26.6 +23.1 81 +36 +36 очень
душно
1011.1 1011.0
03 14.12 С 2 4000 м 8/5 600 м
[Sc diur, vesp Ci fib]
+28.6 +23.4 73 +39 +40 очень
душно
1013.5 1014.0 +24.0 +33.2
06 14.12 С 2 10 км 8/5 600 м
[Sc diur, vesp Ac trans]
+32.0 +23.7 62 +43 +48 опасность
перегрева
1013.4 1013.0
09 14.12 С 1 10 км 9/5 600 м
[Sc Ac trans]
+32.0 +23.3 60 +43 +46 опасность
перегрева
1010.6 1011.0
12 14.12 СВ 1 10 км 8/5 600 м
[Sc Ac trans]
+30.4 +22.2 62 +39 +40 очень
душно
1010.1 1010.0 +33.0
15 14.12 С 2 4000 м 4/4 600 м
[Sc]
+27.6 +22.3 73 +36 +36 очень
душно
1012.2 1012.0
18 14.12 штиль 0 4000 м 8/5 600 м
[Sc Ac trans]
+27.0 +21.9 74 +35 +35 очень
душно
1012.3 1012.0
21 14.12 штиль 0 4000 м 3/3 600 м
[Sc]
+25.6 +22.3 82 +33 +33 очень
душно
1010.9 1011.0
00 15.12 штиль 0 4000 м 3/3 600 м
[Sc]
+25.0 +22.0 83 +32 +32 очень
душно
1010.4 1010.0
03 15.12 штиль 0 10 км 8/4 600 м
[Sc Ac trans]
+26.0 +23.4 86 +35 +37 очень
душно
1012.6 1013.0 +23.8 +33.0
06 15.12 СВ 1 10 км 8/5 600 м
[Sc Ac trans]
+31.0 +22.9 62 +41 +46 опасность
перегрева
1012.4 1012.0
09 15.12 нст 1 10 км 3/3 600 м
[Sc]
+32.8 +26.1 68 +49 +58 опасность
перегрева
1009.7 1010.0
12 15.12 штиль 0 10 км 8/5 600 м
[Sc Ci fib]
+30.4 +22.8 64 +40 +41 очень
душно
1009.4 1009.0 +33.2
15 15.12 штиль 0 4000 м 8/5 600 м
[Sc Ac trans]
+27.2 +23.4 80 +37 +37 очень
душно
1012.2 1012.0
18 15.12 штиль 0 4000 м 8/5 600 м
[Sc Ac trans]
+27.0 +23.5 81 +37 +37 очень
душно
1011.7 1012.0
21 15.12 штиль 0 4000 м 6/5 600 м
[Sc Ac trans]
+26.2 +23.9 87 +36 +36 очень
душно
1010.6 1011.0
00 16.12 штиль 0 4000 м 6/5 600 м
[Cu Sc Ac trans]
+26.0 +23.7 87 +35 +35 очень
душно
1010.9 1011.0
03 16.12 С 1 10 км 5/4 600 м
[Sc Ci fib]
+27.4 +24.5 84 +39 +40 очень
душно
1012.8 1013.0 +23.8 +33.2
06 16.12 нст 1 10 км 8/5 600 м
[Sc Ci fib]
+31.6 +24.5 66 +44 +51 опасность
перегрева
1012.7 1013.0
09 16.12 СВ 1 10 км 5/5 600 м
[Sc]
+31.6 +24.5 66 +44 +51 опасность
перегрева
1009.5 1010.0
12 16.12 СВ 1 10 км 8/5 600 м
[Sc Ac trans]
+30.2 +24.5 72 +43 +43 опасность
перегрева
1009.0 1009.0 +33.2
15 16.12 штиль 0 4000 м 4/4 600 м
[Sc]
+27.4 +24.2 83 +38 +38 очень
душно
1011.8 1012.0
18 16.12 штиль 0 4000 м 8/5 600 м
[Sc Ci sp]
+26.0 +22.4 81 +34 +34 очень
душно
1012.3 1012.0
21 16.12 штиль 0 4000 м 1/1 600 м
[Sc]
+25.0 +22.3 85 +33 +33 очень
душно
1011.2 1011.0
00 17.12 штиль 0 4000 м 3/3 600 м
[Sc]
+24.6 +21.9 85 +32 +32 очень
душно
1010.7 1011.0
03 17.12 СВ 1 10 км 9/5 600 м
[Sc Ac trans]
+26.4 +22.6 80 +35 +36 очень
душно
1012.6 1013.0 +22.6 +33.2
06 17.12 СВ 1 10 км 9/5 600 м
[Sc Ac trans]
+31.2 +22.1 58 +40 +44 очень
душно
1012.8 1013.0

 

Местоположение метеостанции Aminidivi (Lakshadweep, Индия): широта 11.12 долгота 72.73 высота над уровнем моря 3 м.

В архиве по умолчанию представлена погода в Aminidivi за последнюю неделю. Архивные данные за месяц целиком и за предыдущие месяцы, начиная с января 2011 года, Вы можете получить, выбрав интересующий диапазон дат из раскрывающегося списка и нажав кнопку "Ввод!".


*Определитесь, кто Вы:
робот инопланетянин человек

Внимание! Время в таблицах - всемирное. Для получения местного времени необходимо прибавить поправку, которая в Aminidivi равна 5.5 ч.

Смотрите также архив погоды в соседних городах и на ближайших метеорологических станциях:

Погода в Agathi (Lakshadweep, Индия) (68 км)
Погода в Cannanore (Kerala, Индия) (294 км)
Погода в Mangalore (Karnataka, Индия) (306 км)
Погода в Mangalore Airport (Karnataka, Индия) (308 км)
Погода в Minicoy (Lakshadweep, Индия) (317 км)
Погода в Kozhikode (Kerala, Индия) (333 км)
Погода в Karipur (Kerala, Индия) (351 км)
Погода в Madikeri (Karnataka, Индия) (357 км)
Погода в Agumbe Emo (Karnataka, Индия) (368 км)
Погода в Shirali (Karnataka, Индия) (382 км)

Пояснения к столбцам:

Ветер - указаны скорость ветра в м/с - средняя за 10 мин, порывы в срок и между сроками (в фигурных скобках) и направление, откуда дует ветер: С - северный, СВ - северо-восточный, В - восточный, ЮВ - юго-восточный, Ю - южный, ЮЗ - юго-западный, З - западный, СЗ - северо-западный.
Видимость - горизонтальная дальность видимости в метрах или километрах. При видимости от 1 до 10 км при отсутствии осадков обычно наблюдается дымка, при ухудшении видимости до 1 км и менее - туман. В сухую погоду видимость может ухудшаться дымом, пылью или мглою.
Явления - указаны атмосферные явления, наблюдавшиеся в срок или в последний час перед сроком; фигурными скобками обозначены явления, наблюдавшиеся между сроками (за 1-3 часа до срока); квадратными скобками обозначены град или гололедные отложения с указанием их диаметра в мм.
Облачность - указаны через наклонную черту общая и нижняя облачность в баллах и высота нижней границы облаков в метрах; квадратными скобками обозначены формы облаков: Ci - перистые, Cs - перисто-слоистые, Cc - перисто-кучевые, Ac - высококучевые, As - высокослоистые, Sc - слоисто-кучевые, Ns - слоисто-дождевые, Cu - кучевые, Cb - кучево-дождевые. Подробнее классификацию облаков см. в Атласе облаков (PDF).
T - Температура воздуха - температура, измеренная на высоте 2 м над землей.
Td - Температура точки росы - температура, при понижении до которой содержащийся в воздухе водяной пар достигнет насыщения.
f - Относительная влажность воздуха - влажноcть воздуха, измеренная на высоте 2 м над землей.
Te - Эффективная температура - температура, которую ощущает одетый по сезону человек в тени. Характеристика душности погоды. При расчете учитывается влияние влажности воздуха и скорости ветра на теплоощущения человека.
Tes - Эффективная температура на солнце - температура, которую ощущает человек, с поправкой на солнечный нагрев. Характеристика знойности погоды. Зависит от высоты солнца над горизонтом, облачности и скорости ветра. Ночью, в пасмурную погоду, а также при ветре 12 м/с и более поправка равна нулю.
P - Атмосферное давление - приведенное к уровню моря атмосферное давление.
Po - Атмосферное давление - измеренное на уровне метеостанции атмосферное давление.
Tmin - Минимальная температура - минимум температуры воздуха на высоте 2 м над землей.
Tmax - Максимальная температура - максимум температуры воздуха на высоте 2 м над землей.
R - Количество осадков - Количество выпавших осадков за период времени, мм. При наведении курсора мыши на число - период времени, за который выпало указанное количество осадков.
R24 - Количество осадков - Количество выпавших осадков за 24 часа, мм.
S - Снежный покров - Высота снежного покрова, см. При наведении курсора мыши на число - состояние снежного покрова и степень покрытия местности в баллах.